Powrót do katalogu

STARLINK-37886

AktywnyŁącznośćVLEO
NORAD 69943·PAYLOAD·🇺🇸 United States

Wystrzelony Jul 9, 2026 z Cape Canaveral Space Force Station

Loading…

Następne Przeloty (najbliższe 24 godziny)

TLE

ŚwieżeSource: CelesTrak SupGP

Epoka: Sep 14, 2026, 22:35 UTC

1 69943C 26157A   26257.94145833 -.00008912  00000+0 -26329-3 0  2574
2 69943  53.1594 359.3788 0001326  74.2150 300.0384 15.34395324    12

Śledź STARLINK-37886 w czasie rzeczywistym z AllMySat

Download on the App Store